^^
Station Historical Data
 
Daily Summary for January 29, 2020 Units:  English    Metric   Both
Next Day »
Daily Weekly Monthly Yearly Custom
  Current: High: Low: Average:
Temperature: 39.6 °F 44.8 °F 39.6 °F 42.1 °F
Dew Point: 30.9 °F 32.5 °F 30.6 °F 31.5 °F
Humidity: 71% 71% 61% 66%
Wind Speed: 0mph 3.5mph 0mph 0.5mph
Wind Gust: 0mph 3mph - -
WindCalm - - NE
Pressure: 30 in 30 in 29.9 in -
Precipitation: 0 in      
Historical Graphs
 
 
Tabular Data for January 29, 2020
Time Temperature Dew Point Pressure Wind Wind Speed Wind Gust Humidity Rainfall Rate (Hourly) solar Conditions
00:00 44.8 °F 32.2 °F 30 in NE 2.3 mph 0.4 mph 61% 0 in 0.00 W/m2 CLR
00:05 44.6 °F 32.4 °F 30 in Calm   2 mph 62% 0 in 0.00 W/m2 CLR
00:10 44.4 °F 32.2 °F 30 in East 2 mph 0.4 mph 62% 0 in 0.00 W/m2 CLR
00:15 44.2 °F 32.5 °F 30 in Calm   3 mph 63% 0 in 0.00 W/m2 CLR
00:20 44.1 °F 32.4 °F 30 in NE 1.2 mph 0.4 mph 63% 0 in 0.00 W/m2 CLR
00:25 43.9 °F 32.2 °F 30 in Calm   2 mph 63% 0 in 0.00 W/m2 CLR
00:30 43.9 °F 32 °F 30 in NE 3.5 mph 0.8 mph 63% 0 in 0.00 W/m2 CLR
00:35 43.7 °F 32.4 °F 30 in NE 1 mph 3 mph 64% 0 in 0.00 W/m2 CLR
00:40 43.7 °F 32.4 °F 30 in NNE 3.5 mph 1 mph 64% 0 in 0.00 W/m2 CLR
00:45 43.5 °F 31.8 °F 30 in Calm   2 mph 63% 0 in 0.00 W/m2 CLR
00:50 43.5 °F 32.2 °F 30 in NNE 1.2 mph 0.3 mph 64% 0 in 0.00 W/m2 CLR
00:55 43.5 °F 32.2 °F 30 in Calm   2 mph 64% 0 in 0.00 W/m2 CLR
01:00 43.3 °F 31.8 °F 30 in Calm     64% 0 in 0.00 W/m2 CLR
01:05 43.2 °F 31.8 °F 30 in Calm   1 mph 64% 0 in 0.00 W/m2 CLR
01:10 43.2 °F 31.8 °F 30 in Calm     64% 0 in 0.00 W/m2 CLR
01:15 43.2 °F 31.6 °F 30 in Calm   1 mph 64% 0 in 0.00 W/m2 CLR
01:20 43.2 °F 31.6 °F 30 in Calm     64% 0 in 0.00 W/m2 CLR
01:25 43 °F 31.6 °F 30 in Calm     64% 0 in 0.00 W/m2 CLR
01:30 43 °F 31.6 °F 30 in Calm     64% 0 in 0.00 W/m2 CLR
01:35 42.6 °F 31.5 °F 30 in Calm     64% 0 in 0.00 W/m2 CLR
01:40 42.4 °F 31.5 °F 30 in Calm     65% 0 in 0.00 W/m2 CLR
01:45 42.3 °F 31.5 °F 30 in Calm     65% 0 in 0.00 W/m2 CLR
01:50 42.3 °F 31.6 °F 30 in Calm     66% 0 in 0.00 W/m2 CLR
01:55 42.1 °F 31.5 °F 30 in Calm     66% 0 in 0.00 W/m2 CLR
02:00 41.7 °F 31.6 °F 30 in Calm     67% 0 in 0.00 W/m2 CLR
02:05 41.7 °F 31.5 °F 30 in Calm   1 mph 67% 0 in 0.00 W/m2 CLR
02:10 41.7 °F 31.8 °F 30 in NNE 2.3 mph 0.5 mph 68% 0 in 0.00 W/m2 CLR
02:15 41.7 °F 31.8 °F 30 in Calm   2 mph 68% 0 in 0.00 W/m2 CLR
02:20 41.7 °F 31.8 °F 30 in NNE 1.2 mph 0.7 mph 68% 0 in 0.00 W/m2 CLR
02:25 41.7 °F 32 °F 30 in NNE 1 mph 2 mph 68% 0 in 0.00 W/m2 CLR
02:30 41.7 °F 32 °F 30 in NNE 1.2 mph 0.2 mph 68% 0 in 0.00 W/m2 CLR
02:35 41.7 °F 32 °F 30 in Calm   2 mph 68% 0 in 0.00 W/m2 CLR
02:40 41.7 °F 31.6 °F 30 in Calm     67% 0 in 0.00 W/m2 CLR
02:45 41.7 °F 31.6 °F 30 in NNE 1 mph 3 mph 67% 0 in 0.00 W/m2 CLR
02:50 41.9 °F 31.5 °F 30 in NNE 2.3 mph 0.4 mph 66% 0 in 0.00 W/m2 CLR
02:55 41.9 °F 31.3 °F 30 in Calm   1 mph 66% 0 in 0.00 W/m2 CLR
03:00 41.7 °F 31.3 °F 30 in Calm     66% 0 in 0.00 W/m2 CLR
03:05 41.7 °F 31.3 °F 30 in Calm     66% 0 in 0.00 W/m2 CLR
03:10 41.7 °F 31.3 °F 30 in Calm     66% 0 in 0.00 W/m2 CLR
03:15 41.7 °F 31.5 °F 30 in Calm     67% 0 in 0.00 W/m2 CLR
03:20 41.5 °F 31.5 °F 30 in NNE 1 mph   67% 0 in 0.00 W/m2 CLR
03:25 41.4 °F 30.9 °F 30 in Calm   2 mph 66% 0 in 0.00 W/m2 CLR
03:30 41.4 °F 30.7 °F 30 in NE 2.3 mph 0.9 mph 66% 0 in 0.00 W/m2 CLR
03:35 41.4 °F 30.7 °F 30 in Calm   3 mph 66% 0 in 0.00 W/m2 CLR
03:40 41.4 °F 31.3 °F 30 in Calm     67% 0 in 0.00 W/m2 CLR
03:45 41.4 °F 31.1 °F 30 in Calm     67% 0 in 0.00 W/m2 CLR
03:50 41.4 °F 31.3 °F 30 in Calm     67% 0 in 0.00 W/m2 CLR
03:55 41.2 °F 30.7 °F 30 in Calm     66% 0 in 0.00 W/m2 CLR
04:00 41.2 °F 30.7 °F 30 in Calm     66% 0 in 0.00 W/m2 CLR
04:05 41 °F 30.9 °F 30 in Calm     67% 0 in 0.00 W/m2 CLR
04:10 40.8 °F 31.1 °F 30 in Calm     68% 0 in 0.00 W/m2 CLR
04:15 40.6 °F 30.9 °F 30 in Calm     68% 0 in 0.00 W/m2 CLR
04:20 40.5 °F 30.7 °F 30 in Calm     68% 0 in 0.00 W/m2 CLR
04:25 40.1 °F 30.7 °F 30 in Calm     69% 0 in 0.00 W/m2 CLR
04:30 39.7 °F 30.7 °F 30 in Calm     70% 0 in 0.00 W/m2 CLR
04:35 39.6 °F 30.6 °F 29.9 in Calm   1 mph 70% 0 in 0.00 W/m2 CLR
04:40 39.6 °F 30.9 °F 30 in Calm     71% 0 in 0.00 W/m2 CLR
Countryside Manor, Tucson, AZ, USA